Mitchell, SD

4:55 AM CST on December 14, 2017 (GMT -0600)
Mitchell Municipal

Weather History for KMHE - December, 2012

Change the Weather History Date:

Friday, December 21, 2012

  Actual Average Record
Temperature  
Mean Temperature 12 °F 20 °F  
Max Temperature 25 °F 28 °F 59 °F (1900)
Min Temperature -2 °F 11 °F -27 °F (1963)
Degree Days  
Heating Degree Days 53 46  
Month to date heating degree days 772 906  
Since 1 July heating degree days 2298 2474  
Cooling Degree Days 0 0  
Month to date cooling degree days 0 0  
Year to date cooling degree days 1236 824  
Moisture  
Dew Point 4 °F    
Average Humidity 78    
Maximum Humidity 87    
Minimum Humidity 66    
Precipitation  
Precipitation 0.00 in 0.01 in 0.74 in (1918)
Month to date precipitation 0.85 0.34  
Year to date precipitation 22.01 21.41  
Snow  
Snow 0.00 in - 7.50 in (1920)
Month to date snowfall 5.1  
Since 1 July snowfall 5.8  
Snow Depth 3.00 in    
Sea Level Pressure  
Sea Level Pressure 30.25 in    
Wind  
Wind Speed 8 mph (SE)    
Max Wind Speed 16 mph    
Max Gust Speed 20 mph    
Visibility 9 miles    
Events      
T = Trace of Precipitation, MM = Missing Value Source: NWS Daily Summary

Daily Weather History Graph

Daily Weather History Graph

Search for Another Location

Airport or City:

Trip Planner

Search our weather history database for the weather conditions in past years. The results will help you decide how hot, cold, wet, or windy it might be!

Date:

Astronomy

Dec. 21, 2012 Rise Set
Actual Time 8:03 AM CST 4:58 PM CST
Civil Twilight 7:30 AM CST 5:31 PM CST
Nautical Twilight 6:53 AM CST 6:07 PM CST
Astronomical Twilight 6:18 AM CST 6:42 PM CST
Moon 12:53 PM CST (12/21) 1:43 AM CST (12/21)
Length of Visible Light 10h 00m
Length of Day
8h 54m
Waxing Gibbous, 65% of the Moon is Illuminated
Dec 21
Waxing Gibbous
Dec 28
Full
Jan 4
Last Quarter
Jan 11
New
Jan 18
First Quarter

Hourly Weather History & Observations

Time (CST) Temp. Windchill Dew Point Humidity Pressure Visibility Wind Dir Wind Speed Gust Speed Precip Events Conditions
12:53 AM 1.0 °F - -4.0 °F 79% 30.31 in 10.0 mi Calm Calm - N/A   Clear
1:46 AM -0.4 °F - -5.8 °F 78% 30.22 in 10.0 mi Calm Calm - N/A   Scattered Clouds
1:53 AM -0.0 °F - -7.1 °F 72% 30.31 in 10.0 mi Calm Calm - N/A   Mostly Cloudy
2:31 AM 1.4 °F -6.2 °F -2.2 °F 85% 30.24 in 10.0 mi WSW 3.5 mph - N/A   Scattered Clouds
2:53 AM -2.0 °F - -7.1 °F 79% 30.34 in 10.0 mi Calm Calm - N/A   Clear
3:53 AM -0.9 °F - -5.1 °F 83% 30.33 in 9.0 mi Calm Calm - N/A   Clear
4:53 AM -2.0 °F -12.2 °F -6.0 °F 83% 30.32 in 10.0 mi East 4.6 mph - N/A   Clear
5:53 AM -2.0 °F -13.9 °F -6.0 °F 83% 30.32 in 8.0 mi ESE 5.8 mph - N/A   Clear
6:15 AM -2.2 °F -10.4 °F -5.8 °F 85% 30.23 in 9.0 mi SE 3.5 mph - N/A   Scattered Clouds
6:23 AM -2.2 °F -10.4 °F -5.8 °F 85% 30.24 in 9.0 mi SE 3.5 mph - N/A   Mostly Cloudy
6:53 AM -0.9 °F - -5.1 °F 83% 30.35 in 8.0 mi Calm Calm - N/A   Overcast
7:53 AM -0.9 °F -11.0 °F -4.0 °F 87% 30.34 in 4.0 mi ESE 4.6 mph - N/A   Overcast
8:46 AM 1.4 °F - -2.2 °F 85% 30.25 in 7.0 mi Calm Calm - N/A   Scattered Clouds
8:53 AM 1.9 °F - -2.0 °F 83% 30.36 in 7.0 mi Calm Calm - N/A   Partly Cloudy
9:53 AM 6.1 °F -4.3 °F 3.0 °F 87% 30.34 in 7.0 mi ESE 5.8 mph - N/A   Clear
10:53 AM 14.0 °F 3.9 °F 9.0 °F 80% 30.34 in 10.0 mi SSE 6.9 mph - N/A   Clear
11:53 AM 19.0 °F 9.0 °F 10.9 °F 71% 30.31 in 10.0 mi SE 8.1 mph - N/A   Clear
12:53 PM 21.9 °F 10.4 °F 14.0 °F 72% 30.28 in 10.0 mi ESE 11.5 mph - N/A   Clear
1:53 PM 23.0 °F 11.1 °F 16.0 °F 74% 30.25 in 10.0 mi ESE 12.7 mph - N/A   Clear
2:53 PM 24.1 °F 12.0 °F 16.0 °F 71% 30.22 in 10.0 mi SE 13.8 mph - N/A   Clear
3:53 PM 25.0 °F 13.1 °F 17.1 °F 72% 30.20 in 10.0 mi SE 13.8 mph - N/A   Clear
4:53 PM 24.1 °F 13.7 °F 16.0 °F 71% 30.19 in 10.0 mi SE 10.4 mph - N/A   Clear
5:53 PM 25.0 °F 12.6 °F 15.1 °F 66% 30.19 in 10.0 mi SSE 15.0 mph - N/A   Clear
6:53 PM 23.0 °F 10.6 °F 15.1 °F 72% 30.18 in 10.0 mi SSE 13.8 mph - N/A   Clear
7:53 PM 21.9 °F 9.8 °F 14.0 °F 72% 30.17 in 10.0 mi SSE 12.7 mph - N/A   Clear
8:53 PM 21.0 °F 8.1 °F 14.0 °F 74% 30.14 in 10.0 mi SSE 13.8 mph - N/A   Clear
9:53 PM 19.0 °F 7.5 °F 12.9 °F 77% 30.12 in 10.0 mi SE 10.4 mph - N/A   Clear
10:53 PM 15.1 °F 6.4 °F 10.0 °F 80% 30.12 in 10.0 mi East 5.8 mph - N/A   Clear
11:53 PM 14.0 °F 1.2 °F 9.0 °F 80% 30.11 in 10.0 mi SE 10.4 mph - N/A   Clear